Regional Weather Roundup
Issued by NWS

Home | Current Version | Previous Version | Text Only | Print | Product List | Glossary On
Versions: 1 2 3 4 5 6 7 8 9 10 11 12 13 14 15 16 17 18 19 20 21 22 23 24 25 26 27 28 29 30 31 32 33 34 35 36 37 38 39 40 41 42 43 44 45 46 47 48 49 50
000
ASCA42 TJSJ 260110
RWRPR
PUERTO RICO/U.S. VIRGIN ISLANDS HOURLY WEATHER ROUNDUP
NATIONAL WEATHER SERVICE SAN JUAN PR
900 PM AST SAT APR 25 2015

PRZ001-004-260200-
PUERTO RICO

CITY           SKY/WX    TMP DP  RH WIND       PRES   REMARKS
SAN JUAN LMM   PTCLDY    82  72  69 SW6       29.96R
PONCE          PTCLDY    79  70  73 CALM      29.91
AGUADILLA      CLOUDY    79  72  78 N5        29.97R
CEIBA          CLOUDY    79  73  83 SW5       29.99R
$$

PRZ006-007-260200-
U.S. VIRGIN ISLANDS

CITY           SKY/WX    TMP DP  RH WIND       PRES   REMARKS
CHARLOTTE AMA  MOCLDY    81  73  78 SE8       29.97R
CHRISTIANSTED  PTCLDY    81  73  78 SE8       29.98R
$$

HOURLY WEATHER ROUNDUP FOR THE NEWS MEDIA

CITY           SKY/WX    TMP DP  RH WIND       PRES   REMARKS
ORLANDO        CLEAR     83  67  58 W12       29.81S
NEW YORK       MOCLDY    49  35  58 SE5       29.72S
NEWARK         MOCLDY    55  23  28 N9        29.70R
CHICAGO        CLOUDY    42  32  67 N14       29.82R
HARTFORD       CLOUDY    47  36  65 NE7       29.71R
BOSTON         MOCLDY    47  31  53 N10       29.73R
DALLAS         CLEAR     84  48  28 S7        29.64R
PHILADELPHIA   CLOUDY    52  27  38 SW12      29.74S
LOS ANGELES    PTSUNNY   61  54  77 W18       29.86F
WASHINGTON DC  LGT RAIN  41  39  93 CALM      29.76S FOG


USA.gov is the U.S. government's official web portal to all federal, state and local government web resources and services.